This demonstration page uses our WeatherBlox Daily Observations layout. Learn more.

Left ArrowRight Arrow

44.8408, -93.29828

Hourly Observations for April 22, 2017

Temp ( °F °C ) Dew Point ( °F °C ) Humidity (%) Winds ( mph kmh ) Pressure ( in mb ) Visibility ( mi km ) Precip ( " mm )
12:53 am 00:53 Clear 48 8.9 37 2.8 66 66 Calm 30.23 1024 10 16 0.00 0.00
1:53 am 01:53 Clear 47 8.3 36 2.2 66 66 Calm 30.23 1024 10 16 0.00 0.00
2:53 am 02:53 Clear 44 6.7 38 3.3 79 79 Calm 30.22 1023 10 16 0.00 0.00
3:53 am 03:53 Clear 44 6.7 36 2.2 73 73 ESE 3 6 30.22 1023 10 16 0.00 0.00
4:53 am 04:53 Clear 43 6.1 37 2.8 80 80 Calm 30.23 1024 10 16 0.00 0.00
5:53 am 05:53 Mostly Clear 42 5.6 36 2.2 79 79 Calm 30.24 1024 10 16 0.00 0.00
6:53 am 06:53 Mostly Sunny 43 6.1 37 2.8 80 80 Calm 30.26 1025 9 14 0.00 0.00
7:53 am 07:53 Mostly Sunny 48 8.9 39 3.9 71 71 Calm 30.27 1025 10 16 0.00 0.00
8:53 am 08:53 Sunny 52 11.1 39 3.9 61 61 S 3 6 30.28 1025 10 16 0.00 0.00
9:53 am 09:53 Mostly Sunny 58 14.4 30 -1.1 35 35 SSW 6 9 30.26 1025 10 16 0.00 0.00
10:53 am 10:53 Sunny 60 15.6 31 -0.6 33 33 WSW 8 13 30.25 1024 10 16 0.00 0.00
11:53 am 11:53 Sunny 64 17.8 32 0 30 30 WSW 9 15 30.23 1024 10 16 0.00 0.00
12:53 pm 12:53 Sunny 66 18.9 34 1.1 30 30 NW 12 19 30.22 1023 10 16 0.00 0.00
1:53 pm 13:53 Sunny 68 20 34 1.1 28 28 WNW 10 17 30.20 1023 10 16 0.00 0.00
2:53 pm 14:53 Mostly Sunny 69 20.6 35 1.7 29 29 W 10 17 30.18 1022 10 16 0.00 0.00
3:53 pm 15:53 Mostly Sunny 68 20 34 1.1 28 28 WNW 9 15 30.16 1021 10 16 0.00 0.00
4:53 pm 16:53 Mostly Sunny 69 20.6 34 1.1 27 27 WNW 13 20 30.13 1020 10 16 0.00 0.00
5:53 pm 17:53 Mostly Sunny 68 20 33 0.6 27 27 WNW 13 20 30.14 1021 10 16 0.00 0.00
6:53 pm 18:53 Mostly Sunny 67 19.4 34 1.1 30 30 WNW 12 19 30.12 1020 10 16 0.00 0.00
7:53 pm 19:53 Mostly Sunny 65 18.3 34 1.1 32 32 W 6 9 30.11 1020 10 16 0.00 0.00
8:53 pm 20:53 Mostly Clear 64 17.8 33 0.6 32 32 WSW 5 7 30.11 1020 10 16 0.00 0.00
9:53 pm 21:53 Mostly Clear 61 16.1 34 1.1 36 36 WSW 5 7 30.10 1019 10 16 0.00 0.00
10:53 pm 22:53 Clear 57 13.9 38 3.3 49 49 Calm 30.10 1019 10 16 0.00 0.00
11:53 pm 23:53 Clear 56 13.3 36 2.2 47 47 Calm 30.09 1019 10 16 0.00 0.00

Powered by AerisWeather